When you browse on this site, cookies collect data to enhance your experience and personalize the content and advertising you see.
Visit our Privacy Policy to learn more. By continuing to use the site, you agree to this use of cookies and data.
  • Em Portugal
  • Lista de países
  • Para 7 dias
  • Temperatura da água
  • Mapas de satélite
  • Mapa do tempo
  • Widgets de tempo
  • user-avatar
    Iniciar Sessão

    Previsão horária em Albani

    Hoje, 21 Julho, Domingo

    Tempo Temperatura Precipitação Vento Pressão Humidade
    00:00 +11°C° 0.1 mm 8 m/s 755 mmHg 87%
    01:00 +12°C° 0.1 mm 8 m/s 755 mmHg 86%
    02:00 +12°C° 0.1 mm 8 m/s 755 mmHg 85%
    03:00 +12°C° 0.1 mm 8 m/s 755 mmHg 84%
    04:00 +12°C° 0.1 mm 8 m/s 754 mmHg 84%
    05:00 +12°C° 0.1 mm 8 m/s 754 mmHg 84%
    06:00 +12°C° 0.1 mm 8 m/s 754 mmHg 84%
    07:00 +12°C° 0.1 mm 8 m/s 754 mmHg 84%
    08:00 +12°C° 0.1 mm 9 m/s 755 mmHg 84%
    09:00 +12°C° 0.1 mm 9 m/s 754 mmHg 83%
    10:00 +12°C° 0.1 mm 9 m/s 754 mmHg 81%
    11:00 +13°C° 0.1 mm 9 m/s 754 mmHg 80%
    12:00 +13°C° 0.3 mm 9 m/s 754 mmHg 81%
    13:00 +12°C° 0.3 mm 9 m/s 753 mmHg 83%
    14:00 +12°C° 0.3 mm 10 m/s 752 mmHg 84%
    15:00 +12°C° 0.4 mm 10 m/s 753 mmHg 83%
    16:00 +12°C° 0.4 mm 10 m/s 753 mmHg 83%
    17:00 +12°C° 0.4 mm 10 m/s 753 mmHg 83%
    18:00 +12°C° 0.3 mm 10 m/s 754 mmHg 82%
    19:00 +12°C° 0.3 mm 10 m/s 754 mmHg 81%
    20:00 +11°C° 0.3 mm 10 m/s 755 mmHg 80%
    21:00 +11°C° 0 mm 10 m/s 755 mmHg 79%
    22:00 +9°C° 0 mm 10 m/s 755 mmHg 78%
    23:00 +8°C° 0 mm 10 m/s 756 mmHg 77%

    Amanhã, 22 Julho, Segunda-feira

    Tempo Temperatura Precipitação Vento Pressão Humidade
    00:00 +8°C° 0 mm 9 m/s 756 mmHg 76%
    01:00 +8°C° 0 mm 9 m/s 756 mmHg 74%
    02:00 +8°C° 0 mm 9 m/s 757 mmHg 72%
    03:00 +8°C° 0 mm 9 m/s 757 mmHg 72%
    04:00 +8°C° 0 mm 9 m/s 758 mmHg 72%
    05:00 +9°C° 0 mm 8 m/s 758 mmHg 72%
    06:00 +9°C° 0.1 mm 8 m/s 758 mmHg 73%
    07:00 +8°C° 0.1 mm 7 m/s 759 mmHg 74%
    08:00 +8°C° 0.1 mm 7 m/s 759 mmHg 74%
    09:00 +9°C° 0.1 mm 7 m/s 760 mmHg 73%
    10:00 +9°C° 0.1 mm 7 m/s 760 mmHg 71%
    11:00 +9°C° 0.1 mm 6 m/s 761 mmHg 70%
    12:00 +10°C° 0 mm 7 m/s 760 mmHg 68%
    13:00 +10°C° 0 mm 7 m/s 760 mmHg 66%
    14:00 +11°C° 0 mm 7 m/s 760 mmHg 65%
    15:00 +10°C° 0 mm 6 m/s 760 mmHg 67%
    16:00 +10°C° 0 mm 6 m/s 760 mmHg 69%
    17:00 +9°C° 0 mm 6 m/s 761 mmHg 71%
    18:00 +9°C° 0.1 mm 6 m/s 761 mmHg 73%
    19:00 +9°C° 0.1 mm 6 m/s 761 mmHg 75%
    20:00 +9°C° 0.1 mm 6 m/s 761 mmHg 78%
    21:00 +9°C° 0.1 mm 6 m/s 762 mmHg 78%
    22:00 +10°C° 0.1 mm 6 m/s 762 mmHg 79%
    23:00 +10°C° 0.1 mm 6 m/s 762 mmHg 79%

    Depois de amanhã, 23 Julho, Terça-feira

    Tempo Temperatura Precipitação Vento Pressão Humidade
    00:00 +10°C° 0 mm 6 m/s 762 mmHg 82%
    01:00 +9°C° 0 mm 6 m/s 762 mmHg 85%
    02:00 +9°C° 0 mm 6 m/s 762 mmHg 88%
    03:00 +9°C° 0.1 mm 6 m/s 762 mmHg 88%
    04:00 +9°C° 0.1 mm 6 m/s 762 mmHg 87%
    05:00 +9°C° 0.1 mm 6 m/s 762 mmHg 87%
    06:00 +10°C° 0.1 mm 5 m/s 762 mmHg 87%
    07:00 +10°C° 0.1 mm 5 m/s 762 mmHg 86%
    08:00 +12°C° 0.1 mm 5 m/s 763 mmHg 86%
    09:00 +12°C° 0.1 mm 5 m/s 763 mmHg 84%
    10:00 +13°C° 0.1 mm 4 m/s 764 mmHg 83%
    11:00 +14°C° 0.1 mm 4 m/s 764 mmHg 81%
    12:00 +14°C° 0.1 mm 4 m/s 764 mmHg 82%
    13:00 +14°C° 0.1 mm 4 m/s 763 mmHg 83%
    14:00 +14°C° 0.1 mm 4 m/s 763 mmHg 83%
    15:00 +14°C° 0.2 mm 4 m/s 763 mmHg 84%
    16:00 +13°C° 0.2 mm 4 m/s 763 mmHg 85%
    17:00 +13°C° 0.2 mm 4 m/s 764 mmHg 86%
    18:00 +13°C° 0.1 mm 4 m/s 764 mmHg 87%
    19:00 +12°C° 0.1 mm 4 m/s 764 mmHg 89%
    20:00 +12°C° 0.1 mm 3 m/s 764 mmHg 90%
    21:00 +12°C° 0.1 mm 4 m/s 764 mmHg 90%
    22:00 +12°C° 0.1 mm 4 m/s 764 mmHg 90%
    23:00 +12°C° 0.1 mm 4 m/s 764 mmHg 90%

    24 Julho, Quarta-feira

    Tempo Temperatura Precipitação Vento Pressão Humidade
    00:00 +11°C° 0 mm 4 m/s 764 mmHg 91%
    01:00 +11°C° 0 mm 4 m/s 764 mmHg 92%
    02:00 +10°C° 0 mm 4 m/s 763 mmHg 93%
    03:00 +10°C° 0 mm 4 m/s 763 mmHg 93%
    04:00 +10°C° 0 mm 4 m/s 763 mmHg 93%
    05:00 +9°C° 0 mm 5 m/s 763 mmHg 93%
    06:00 +9°C° 0 mm 5 m/s 763 mmHg 91%
    07:00 +10°C° 0 mm 5 m/s 763 mmHg 89%
    08:00 +10°C° 0 mm 6 m/s 763 mmHg 87%
    09:00 +11°C° 0 mm 6 m/s 763 mmHg 82%
    10:00 +13°C° 0 mm 6 m/s 763 mmHg 78%
    11:00 +15°C° 0 mm 7 m/s 763 mmHg 74%
    12:00 +15°C° 0.1 mm 7 m/s 762 mmHg 72%
    13:00 +16°C° 0.1 mm 6 m/s 761 mmHg 70%
    14:00 +16°C° 0.1 mm 6 m/s 761 mmHg 68%
    15:00 +15°C° 0.1 mm 6 m/s 761 mmHg 71%
    16:00 +15°C° 0.1 mm 6 m/s 761 mmHg 74%
    17:00 +14°C° 0.1 mm 6 m/s 761 mmHg 77%
    18:00 +14°C° 0.3 mm 6 m/s 761 mmHg 81%
    19:00 +13°C° 0.3 mm 6 m/s 762 mmHg 85%
    20:00 +13°C° 0.3 mm 6 m/s 762 mmHg 89%
    21:00 +12°C° 0.1 mm 5 m/s 762 mmHg 89%
    22:00 +12°C° 0.1 mm 5 m/s 762 mmHg 89%
    23:00 +10°C° 0.1 mm 5 m/s 762 mmHg 89%

    25 Julho, Quinta-feira

    Tempo Temperatura Precipitação Vento Pressão Humidade
    00:00 +10°C° 0.2 mm 5 m/s 762 mmHg 90%
    01:00 +11°C° 0.2 mm 4 m/s 763 mmHg 92%
    02:00 +10°C° 0.2 mm 4 m/s 763 mmHg 94%
    03:00 +10°C° 0.4 mm 4 m/s 763 mmHg 91%
    04:00 +11°C° 0.4 mm 4 m/s 764 mmHg 88%
    05:00 +11°C° 0.4 mm 4 m/s 764 mmHg 85%
    06:00 +11°C° 0 mm 4 m/s 764 mmHg 84%
    07:00 +11°C° 0 mm 4 m/s 765 mmHg 83%
    08:00 +10°C° 0 mm 3 m/s 766 mmHg 81%
    09:00 +11°C° 0 mm 3 m/s 766 mmHg 78%
    10:00 +11°C° 0 mm 3 m/s 766 mmHg 75%
    11:00 +12°C° 0 mm 3 m/s 766 mmHg 72%
    12:00 +12°C° 0 mm 3 m/s 766 mmHg 70%
    13:00 +12°C° 0 mm 3 m/s 765 mmHg 68%
    14:00 +12°C° 0 mm 3 m/s 765 mmHg 66%
    15:00 +13°C° 0 mm 2 m/s 765 mmHg 68%
    16:00 +12°C° 0 mm 2 m/s 766 mmHg 69%
    17:00 +12°C° 0 mm 2 m/s 766 mmHg 71%
    18:00 +12°C° 0 mm 2 m/s 766 mmHg 71%
    19:00 +11°C° 0 mm 3 m/s 766 mmHg 72%
    20:00 +10°C° 0 mm 3 m/s 766 mmHg 72%
    21:00 +10°C° 0 mm 3 m/s 766 mmHg 73%
    22:00 +10°C° 0 mm 2 m/s 766 mmHg 74%
    23:00 +10°C° 0 mm 2 m/s 766 mmHg 75%

    26 Julho, Sexta-feira

    Tempo Temperatura Precipitação Vento Pressão Humidade
    00:00 +10°C° 0.1 mm 2 m/s 765 mmHg 78%
    01:00 +10°C° 0.1 mm 2 m/s 765 mmHg 81%
    02:00 +10°C° 0.1 mm 2 m/s 765 mmHg 84%
    03:00 +10°C° 0.1 mm 2 m/s 764 mmHg 84%
    04:00 +10°C° 0.1 mm 2 m/s 764 mmHg 84%
    05:00 +9°C° 0.1 mm 2 m/s 764 mmHg 84%
    06:00 +10°C° 0.1 mm 2 m/s 764 mmHg 85%
    07:00 +10°C° 0.1 mm 2 m/s 764 mmHg 86%
    08:00 +10°C° 0.1 mm 2 m/s 764 mmHg 87%
    09:00 +12°C° 0 mm 2 m/s 764 mmHg 85%
    10:00 +13°C° 0 mm 2 m/s 764 mmHg 82%
    11:00 +13°C° 0 mm 3 m/s 764 mmHg 79%
    12:00 +13°C° 0 mm 3 m/s 763 mmHg 78%
    13:00 +13°C° 0 mm 3 m/s 763 mmHg 77%
    14:00 +14°C° 0 mm 3 m/s 762 mmHg 76%
    15:00 +13°C° 0.1 mm 3 m/s 762 mmHg 78%
    16:00 +12°C° 0.1 mm 4 m/s 762 mmHg 80%
    17:00 +12°C° 0.1 mm 4 m/s 762 mmHg 82%
    18:00 +11°C° 0 mm 4 m/s 762 mmHg 83%
    19:00 +10°C° 0 mm 4 m/s 763 mmHg 85%
    20:00 +8°C° 0 mm 4 m/s 763 mmHg 87%
    21:00 +9°C° 0.1 mm 3 m/s 763 mmHg 87%
    22:00 +9°C° 0.1 mm 3 m/s 763 mmHg 87%
    23:00 +9°C° 0.1 mm 3 m/s 763 mmHg 87%
    Mostrar mais